Station ERXA2 - Eldred Rock MXAK, AK Image indicating link to RSS feed of recent meteorological observations for station ERXA2


Conditions at ERXA2 as of
(7:52 am AKDT)
1552 GMT on 06/25/2024:
     

Click on the graph icon in the table below to see a time series plot of the last five days of that observation.

5-day plot - Wind Direction Wind Direction (WDIR):SSW ( 210 deg true )
5-day plot - Wind Speed Wind Speed (WSPD): 7 kts
5-day plot - Wind Gust Wind Gust (GST): 9 kts
5-day plot - Air Temperature Air Temperature (ATMP): 55.6 °F
5-day plot - Dew Point Dew Point (DEWP): 54.1 °F
5-day plot - Wind Speed at 10 Meters Wind Speed at 10 meters (WSPD10M): 8 kts
5-day plot - Wind Speed at 20 Meters Wind Speed at 20 meters (WSPD20M): 10 kts
5-day plot -  Wind Speed, Wind Gust and Atmospheric Pressure Combined plot of Wind Speed, Gust, and Air Pressure
Previous observations
TIME
(AKDT)
5-day plot - Wind Direction
WDIR
 
5-day plot - Wind Speed
WSPD
kts
5-day plot - Wind Gust
GST
kts
5-day plot - Wave Height
WVHT
ft
5-day plot - Dominant Wave Period
DPD
sec
5-day plot - Average Wave Period
APD
sec
5-day plot - Mean Wave Direction
MWD
 
5-day plot - Atmospheric Pressure
PRES
in
5-day plot - Pressure Tendency
PTDY
in
5-day plot - Air Temperature
ATMP
°F
5-day plot - Water Temperature
WTMP
°F
5-day plot - Dew Point
DEWP
°F
5-day plot - Salinity
SAL
psu
5-day plot - Visibility
VIS
nmi
5-day plot - Tide (above MLLW)
TIDE
ft
2024-06-25 07:42 amSSW 7 9------ 55.6- 54.1---
2024-06-25 07:32 amSSW 7 9------ 55.6- 54.1---
2024-06-25 07:22 amSSW 7 9------ 55.6- 54.1---
2024-06-25 07:12 amSSW 7 10------ 55.6- 54.1---
2024-06-25 07:02 am S 9 12------ 55.6- 54.1---
2024-06-25 06:52 am S 8 11------ 55.6- 54.1---
2024-06-25 06:42 amSSW 8 12------ 55.8- 54.3---
2024-06-25 06:32 amSSW 10 12------ 55.6- 54.0---
2024-06-25 06:22 amSSW 10 13------ 55.6- 54.1---
2024-06-25 06:12 amSSW 11 13------ 55.6- 54.1---
2024-06-25 06:02 amSSW 11 13------ 55.4- 54.0---
2024-06-25 05:52 amSSW 11 13------ 55.4- 54.1---
2024-06-25 05:42 amSSW 11 14------ 55.6- 54.1---
2024-06-25 05:32 am S 11 14------ 55.4- 54.0---
2024-06-25 05:22 am S 10 14------ 55.4- 54.1---
2024-06-25 05:12 amSSW 11 14------ 55.4- 54.3---
2024-06-25 05:02 am S 12 15------ 55.2- 54.1---
2024-06-25 04:52 am S 11 15------ 55.4- 54.1---
2024-06-25 04:42 amSSW 12 15------ 55.6- 54.1---
2024-06-25 04:32 amSSW 11 17------ 55.6- 54.1---
2024-06-25 04:22 am S 11 15------ 55.6- 54.1---
2024-06-25 04:12 am S 12 16------ 55.4- 54.0---
2024-06-25 04:02 am S 12 17------ 55.6- 54.1---
2024-06-25 03:52 am S 14 17------ 55.6- 54.1---
2024-06-25 03:42 am S 13 17------ 55.8- 54.1---
2024-06-25 03:32 am S 12 16------ 55.8- 54.1---
2024-06-25 03:22 am S 13 17------ 55.8- 54.1---
2024-06-25 03:12 am S 13 18------ 55.8- 54.1---
2024-06-25 03:02 am S 14 18------ 55.8- 54.1---
2024-06-25 02:52 am S 15 19------ 55.6- 54.1---
2024-06-25 02:42 am S 14 19------ 55.8- 54.3---
2024-06-25 02:32 amSSW 14 18------ 55.6- 54.1---
2024-06-25 02:22 am S 14 19------ 55.8- 54.3---
2024-06-25 02:12 am S 15 20------ 55.8- 54.3---
2024-06-25 02:02 am S 17 22------ 55.8- 54.1---
2024-06-25 01:52 am S 16 21------ 55.9- 54.3---
2024-06-25 01:32 am S 16 21------ 56.1- 54.5---
2024-06-25 01:22 am S 16 21------ 56.1- 54.5---
2024-06-25 01:12 am S 16 22------ 55.9- 54.5---
2024-06-25 01:02 amSSW 16 21------ 55.9- 54.5---
2024-06-25 12:52 amSSW 17 22------ 55.9- 54.5---
2024-06-25 12:42 amSSW 18 23------ 55.9- 54.7---
2024-06-25 12:32 amSSW 17 23------ 55.9- 54.9---
2024-06-25 12:22 am S 18 23------ 55.9- 54.9---
2024-06-25 12:12 am S 18 25------ 56.1- 54.9---
2024-06-25 12:02 am S 17 23------ 56.1- 54.7---
2024-06-24 11:52 pm S 17 23------ 56.1- 54.7---
2024-06-24 11:42 pm S 17 23------ 56.3- 54.7---
2024-06-24 11:32 pm S 19 23------ 56.3- 54.5---
2024-06-24 11:22 pm S 18 23------ 56.3- 54.5---
2024-06-24 11:12 pm S 19 25------ 56.3- 54.1---
2024-06-24 11:02 pm S 18 26------ 56.1- 54.5---
2024-06-24 10:52 pm S 19 25------ 56.1- 54.5---
2024-06-24 10:42 pmSSW 19 24------ 56.1- 54.7---
2024-06-24 10:32 pmSSW 20 26------ 56.5- 54.7---
2024-06-24 10:22 pm S 20 27------ 56.7- 54.1---
2024-06-24 10:12 pm S 21 28------ 56.7- 54.0---
2024-06-24 10:02 pm S 20 26------ 56.8- 54.1---
2024-06-24 09:52 pm S 19 25------ 56.8- 54.5---
2024-06-24 09:42 pm S 19 26------ 57.0- 54.5---
2024-06-24 09:32 pm S 18 24------ 57.0- 54.7---
2024-06-24 09:22 pm S 19 25------ 57.0- 54.7---
2024-06-24 09:12 pmSSW 19 24------ 57.2- 54.5---
2024-06-24 09:02 pm S 19 25------ 57.2- 54.1---
2024-06-24 08:52 pm S 20 25------ 57.4- 54.0---
2024-06-24 08:42 pm S 19 25------ 57.4- 54.1---
2024-06-24 08:32 pm S 19 27------ 57.2- 54.1---
2024-06-24 08:22 pm S 18 24------ 57.0- 54.3---
2024-06-24 08:12 pm S 19 25------ 57.0- 54.5---
2024-06-24 08:02 pmSSW 18 24------ 57.2- 54.7---
2024-06-24 07:52 pm S 19 25------ 57.2- 54.7---
2024-06-24 07:42 pm S 18 24------ 57.2- 54.7---
2024-06-24 07:32 pm S 19 25------ 57.2- 54.5---
2024-06-24 07:22 pmSSW 19 25------ 57.2- 54.3---
2024-06-24 07:13 pmSSW 18 24------ 57.2- 54.7---
2024-06-24 06:52 pmSSW 19 24------ 57.4- 54.5---
2024-06-24 06:42 pmSSW 18 24------ 57.6- 54.7---
2024-06-24 06:32 pmSSW 18 24------ 57.7- 54.7---
2024-06-24 06:22 pmSSW 18 24------ 57.7- 54.9---
2024-06-24 06:12 pm S 18 23------ 57.9- 54.9---
2024-06-24 06:02 pm S 18 23------ 57.9- 54.7---
2024-06-24 05:52 pm S 17 24------ 57.9- 54.7---
2024-06-24 05:42 pm S 17 22------ 57.9- 54.9---
2024-06-24 05:39 pmSSW 16 21------ 57.9- 54.7---
2024-06-24 05:22 pmSSW 17 24------ 57.7- 54.7---
2024-06-24 05:19 pm S 17 22------ 57.9- 54.7---
2024-06-24 05:07 pmSSW 18 22------ 57.9- 54.5---
2024-06-24 03:42 pmSSW 16 21------ 58.3- 54.5---
2024-06-24 03:32 pmSSW 17 22------ 58.3- 54.5---
2024-06-24 03:22 pmSSW 16 21------ 58.3- 54.5---
2024-06-24 03:12 pmSSW 17 20------ 58.1- 54.5---
2024-06-24 02:52 pmSSW 16 21------ 58.3- 54.5---
2024-06-24 02:42 pmSSW 16 21------ 58.5- 54.5---
2024-06-24 02:41 pmSSW 16 21------ 58.5- 54.5---
2024-06-24 02:40 pmSSW 16 21------ 58.5- 54.5---
2024-06-24 02:02 pmSSW 14 19------ 58.5- 54.5---
2024-06-24 01:52 pmSSW 14 19------ 58.5- 54.7---
2024-06-24 01:42 pmSSW 14 18------ 58.6- 54.5---
2024-06-24 01:32 pmSSW 14 19------ 58.5- 54.5---
2024-06-24 01:22 pmSSW 15 19------ 58.3- 54.5---
2024-06-24 01:12 pmSSW 15 18------ 58.5- 54.1---
2024-06-24 01:02 pmSSW 15 18------ 58.1- 54.3---
2024-06-24 12:52 pmSSW 15 18------ 57.9- 54.3---
2024-06-24 12:42 pmSSW 15 17------ 57.6- 54.3---
2024-06-24 12:32 pmSSW 15 18------ 57.4- 54.3---
2024-06-24 12:22 pmSSW 16 18------ 57.2- 54.3---
2024-06-24 12:12 pmSSW 16 18------ 57.2- 54.0---
2024-06-24 12:02 pmSSW 16 18------ 57.0- 54.0---
2024-06-24 11:52 amSSW 16 18------ 56.8- 54.0---
2024-06-24 11:42 amSSW 15 18------ 56.8- 54.1---
2024-06-24 11:32 amSSW 15 17------ 56.7- 54.1---
2024-06-24 11:22 amSSW 15 17------ 56.7- 54.1---
2024-06-24 11:12 amSSW 15 17------ 56.7- 54.0---
2024-06-24 11:02 amSSW 14 17------ 56.7- 54.1---
2024-06-24 10:52 amSSW 14 17------ 56.7- 54.3---
2024-06-24 10:42 amSSW 14 17------ 56.8- 54.3---
2024-06-24 10:32 amSSW 12 16------ 56.8- 54.3---
2024-06-24 10:22 amSSW 12 18------ 56.8- 54.1---
2024-06-24 10:12 amSSW 13 18------ 56.8- 54.3---
2024-06-24 10:02 am S 13 18------ 56.8- 54.0---
2024-06-24 09:52 am S 14 18------ 56.7- 54.0---
2024-06-24 09:42 amSSW 13 17------ 56.8- 54.0---
2024-06-24 09:22 amSSW 14 19------ 56.7- 54.1---
2024-06-24 09:12 amSSW 13 18------ 56.7- 54.1---
2024-06-24 09:02 am S 14 18------ 56.7- 53.8---
2024-06-24 08:52 am S 13 18------ 56.7- 54.1---
2024-06-24 08:42 am S 13 17------ 56.8- 54.1---
2024-06-24 08:32 amSSW 12 16------ 57.0- 54.1---
2024-06-24 08:22 am S 13 17------ 57.0- 53.8---
2024-06-24 08:12 am S 12 17------ 57.2- 54.0---
2024-06-24 08:02 am S 14 17------ 57.0- 53.8---
2024-06-24 07:52 am S 13 17------ 57.2- 54.0---